sat.trackr.live / text

‹ back to catalog

STARLINK-32877

NORAD 62960 · 2025-029N

PAYLOAD ACTIVE UNKNOWN

§ Identity

Operator
Country
US
Launch date
2025-02-11
Launch site
AFWTR
Launch vehicle
Mass (kg)
RCS (m²)

Purposes: comms

External: N2YO · Heavens-Above · Gunter

§ Orbital elements

Epoch: 2026-05-24T15:35:36.382560Z

Period
94.10 min
Inclination
53.1609°
Eccentricity
0.0000719
Mean motion
15.30206731 rev/d
Perigee alt
474.7 km
Apogee alt
475.7 km
Semi-major
6,853.3 km
B*
7.8472e-4
RAAN
239.8971°
Arg perigee
82.6677°
Mean anomaly
277.4405°
Rev number
7,292

§ Raw data

STARLINK-328771 62960U 25029N   26144.64972665  .00022959  00000+0  78472-3 0  99902 62960  53.1609 239.8971 0000719  82.6677 277.4405 15.30206731 72928

JSON: /api/v1/satellites/62960 · /tle

For live sub-satellite position, see the globe view (requires WebGL).

§ Visibility from observer

Set your observer location to see the next 7 days of passes ≥ 10°. The values pass through the URL so the page stays shareable.

No JS? Fill the form by hand. The geolocation button needs JavaScript.